Location: Newark
(44.3449°N, 4.8694°E)
Time: 02:35:44
(UTC+00:00)

Envisat - Pass Details

Date: 25 January 2020
Orbit: 764 x 766 km, 98.1° (Epoch: 25 February)

Event Time Altitude Azimuth Distance (km) Brightness Sun altitude
Rises 17:27:11 0° 166° (SSE) 3,219 6.3 -8.7°
Reaches altitude 10° 17:29:29 10° 167° (SSE) 2,297 5.5 -9.1°
Maximum altitude 17:34:34 86° 257° (WSW) 775 3.1 -10.0°
Drops below altitude 10° 17:39:40 10° 346° (NNW) 2,314 5.5 -10.9°
Sets 17:41:59 0° 347° (NNW) 3,244 6.2 -11.3°
